Wind_Speed
6 5 5 4 3 2 0 1 3 4 5 5 6 7 7 7 7 7 6 5 6 7 7 7 7 7 7 7 7 7 7 7 8 8 8 8 8 8 7 8 9 9 9 10 10 11 11 11 10
6 6 5 4 4 2 2 2 3 5 6 6 7 7 8 7 7 7 6 6 6 6 7 7 7 7 7 7 7 8 8 8 8 8 8 8 8 8 8 9 9 9 10 10 11 11 12 11 11
7 6 6 6 5 2 2 3 4 6 7 8 9 9 7 7 6 6 6 7 7 6 6 7 7 7 7 7 7 8 8 8 8 8 9 8 8 9 9 9 10 10 10 11 11 11 12 12 12
7 7 7 6 5 3 3 4 6 8 10 10 10 9 6 6 6 6 6 6 6 6 6 7 7 7 7 7 7 8 8 9 10 9 9 9 9 10 10 10 10 11 11 12 12 11 12 12 13
8 8 7 6 4 4 4 5 7 8 10 10 10 10 9 8 8 7 7 7 7 6 6 7 7 7 7 7 7 8 9 9 10 10 9 10 10 10 10 11 11 11 12 13 13 12 11 12 13
8 8 8 7 6 5 5 6 7 8 9 9 10 10 9 8 8 9 8 8 8 8 8 8 8 7 7 8 8 8 9 10 10 10 10 10 10 10 11 11 12 12 12 13 13 12 12 11 12
9 9 7 7 7 6 6 6 7 8 9 10 9 10 9 8 8 8 9 9 8 8 9 9 8 8 8 9 9 9 9 10 10 10 10 10 11 11 12 12 12 13 13 14 13 13 12 11 12
10 9 8 7 7 7 7 7 8 8 9 10 9 10 10 9 8 7 8 9 8 8 9 9 8 8 8 9 10 10 10 10 11 11 11 11 12 11 12 12 12 12 13 14 14 14 13 12 12
11 10 8 7 7 8 8 8 9 9 10 10 10 9 10 9 8 8 9 9 9 8 9 8 8 8 9 9 10 10 10 11 12 12 11 11 12 12 12 13 13 13 13 13 14 14 14 13 13
12 11 10 10 10 9 10 10 10 11 11 11 11 10 10 10 10 9 9 9 9 8 8 8 8 9 10 10 10 10 11 12 12 12 13 12 12 13 13 14 14 13 13 13 14 14 14 14 15
13 13 12 12 12 11 12 11 12 13 12 12 12 12 11 11 11 9 9 9 10 9 9 9 9 10 10 10 11 11 12 12 13 12 13 13 13 13 13 13 13 14 13 13 13 13 14 15 15
15 16 16 14 14 14 13 13 15 14 13 12 11 11 12 11 11 11 11 10 10 10 10 10 10 11 12 12 12 12 13 13 13 13 13 13 13 13 13 12 13 13 12 12 12 13 14 14 15
17 18 18 16 15 14 14 14 15 15 15 15 13 12 11 11 12 13 12 12 10 10 11 11 12 12 13 13 13 13 13 13 13 13 13 13 14 14 14 13 13 12 12 12 13 13 14 14 14
17 18 17 16 14 14 14 15 15 15 16 15 14 14 13 12 13 13 14 13 12 11 11 12 13 13 14 14 13 13 13 13 14 14 13 13 14 14 14 14 13 12 12 12 13 14 14 15 14
19 18 16 14 14 15 15 16 17 16 16 15 15 14 13 14 14 14 14 13 12 13 13 13 13 14 14 13 13 13 13 13 13 13 14 14 13 13 14 14 14 13 13 13 13 14 15 15 15
19 18 16 14 14 15 16 16 16 16 16 15 16 15 14 15 14 14 13 13 13 13 14 14 13 14 12 12 11 11 13 13 13 14 14 14 14 14 15 14 13 13 13 14 14 15 16 15 16
18 17 15 14 14 15 17 17 15 15 15 15 15 16 15 16 14 14 14 13 13 14 14 14 14 14 13 12 12 13 13 14 14 14 14 14 14 15 15 14 13 13 13 14 15 15 15 16 17
17 17 16 15 15 17 18 18 16 15 15 15 15 14 14 15 16 15 14 14 14 14 14 14 14 14 14 13 13 13 13 13 14 13 13 13 14 14 14 13 13 13 14 14 15 15 15 16 17
18 18 18 17 16 18 19 19 19 17 16 14 13 14 14 15 16 15 14 15 15 14 14 14 15 15 14 13 13 12 13 13 14 14 13 13 14 13 13 12 13 13 14 14 15 16 16 16 17
18 18 18 18 17 18 18 18 18 18 16 15 14 14 14 15 15 15 15 15 14 14 14 14 15 14 14 13 12 12 13 13 14 14 13 12 13 13 12 13 13 13 13 14 15 15 15 16 17
18 18 18 17 17 18 19 20 19 19 18 16 15 15 14 14 14 14 14 14 14 14 14 14 15 14 14 14 14 14 14 14 14 14 14 14 14 14 13 13 13 13 14 15 15 16 16 16 16
18 17 19 18 19 20 20 22 20 19 18 17 15 15 14 12 12 13 13 13 13 14 14 14 15 14 13 13 13 14 14 14 14 14 15 14 14 15 14 14 14 15 16 16 16 16 16 16 17
17 18 21 21 21 22 22 23 21 21 19 18 16 13 13 13 11 11 12 12 13 14 14 14 14 13 13 12 13 13 14 14 14 14 15 15 15 15 15 15 15 16 16 16 16 16 16 16 16
18 19 21 22 23 23 22 23 21 20 19 17 14 13 12 13 12 12 12 12 13 13 13 13 12 13 13 13 13 13 13 13 14 14 15 16 16 16 15 16 16 17 17 17 17 16 16 16 16
19 19 20 21 23 23 21 23 22 21 18 17 16 15 13 13 13 13 12 13 13 12 12 12 12 13 13 13 13 13 13 14 14 15 15 16 16 16 17 17 17 18 18 18 17 17 16 16 16
19 19 21 22 21 22 21 22 20 20 19 18 18 16 15 14 13 13 13 13 13 12 12 12 12 13 13 13 13 14 14 14 14 14 14 15 15 16 16 17 17 18 18 18 17 17 17 16 16
20 21 20 22 22 22 23 23 21 19 20 19 18 17 15 15 14 14 15 13 12 12 11 12 13 13 13 13 14 14 14 14 14 14 14 15 15 16 16 17 17 18 18 18 17 17 17 17 16
22 21 21 22 24 24 22 21 20 20 20 19 17 16 16 15 16 15 15 15 14 13 13 13 13 13 13 14 14 14 14 14 15 15 15 15 16 16 16 16 16 17 18 18 17 16 17 17 18
22 22 22 22 23 24 23 22 20 20 20 19 18 18 17 17 17 17 17 17 15 15 15 15 14 13 14 15 14 14 14 15 15 16 15 16 15 16 16 16 16 17 18 18 18 17 18 18 18
21 21 21 22 23 24 25 23 21 21 20 18 19 19 19 18 18 18 18 18 17 17 16 15 15 14 15 15 15 16 16 16 16 15 15 16 15 16 16 16 16 17 18 18 18 18 18 17 17
Wind_Direction
179 174 170 168 162 157 68 327 326 331 324 317 306 302 303 312 311 318 319 324 335 329 329 329 330 325 323 315 308 306 300 294 296 298 295 288 287 284 279 281 274 268 269 268 263 257 253 252 251
193 187 181 181 189 216 285 312 325 324 327 319 309 301 302 300 301 307 314 321 325 322 324 326 325 321 319 316 310 305 302 296 295 295 294 291 292 291 286 284 278 270 267 266 263 260 254 252 252
198 191 192 193 188 230 289 294 328 321 327 321 312 310 312 307 306 307 311 318 315 313 318 322 321 318 316 313 308 305 301 301 299 295 291 290 292 290 286 281 277 271 269 266 263 262 255 256 253
203 198 197 196 195 233 280 302 326 329 329 325 318 316 321 311 318 316 315 319 318 317 317 317 316 315 315 309 306 303 299 301 301 298 292 288 288 288 284 280 277 270 270 270 268 262 260 257 253
214 211 205 199 212 246 280 304 316 316 321 318 322 320 321 320 321 318 319 318 316 317 319 319 316 315 311 307 309 308 302 302 303 299 295 292 289 283 280 278 277 273 270 271 270 262 258 253 250
220 218 212 204 207 238 278 306 314 312 310 313 315 324 323 322 323 318 316 318 318 318 321 319 317 313 310 310 313 306 302 302 303 299 296 295 291 282 278 279 276 272 270 271 267 262 255 252 252
227 217 211 204 215 249 278 291 294 306 309 315 318 321 323 321 318 314 316 321 320 319 321 319 317 313 309 309 310 305 303 302 301 300 298 292 289 286 285 280 276 274 272 268 265 261 257 251 246
225 221 207 198 219 246 266 281 287 295 303 306 311 315 316 317 313 314 316 316 315 313 317 320 314 318 314 311 309 306 305 303 302 300 298 292 291 289 289 285 281 275 271 267 266 260 259 256 246
230 226 214 206 226 242 256 266 277 292 297 303 311 316 314 310 312 314 311 312 311 309 308 311 314 313 314 315 315 311 308 304 301 299 297 295 294 293 290 286 285 280 272 269 265 261 262 258 253
232 230 229 229 233 244 255 258 267 282 290 297 306 309 309 309 309 307 306 308 306 306 307 304 309 311 313 313 312 311 310 305 302 299 297 295 295 294 291 283 282 280 275 270 265 263 262 259 253
235 231 234 235 236 237 242 250 264 276 282 290 301 300 302 306 309 308 305 304 303 304 305 305 307 310 310 312 310 310 311 309 306 301 296 292 296 296 292 287 284 280 276 270 263 263 262 258 254
239 235 236 236 237 237 238 248 261 273 277 285 294 303 306 309 310 305 303 302 302 300 299 302 306 308 308 309 313 312 310 309 307 303 300 298 297 297 296 292 288 283 278 273 267 266 262 258 256
238 238 238 236 237 241 241 248 259 269 276 281 290 296 301 307 310 311 307 303 301 302 303 299 301 304 305 307 311 311 309 307 306 304 302 300 297 297 295 290 288 283 280 275 272 269 266 262 259
236 235 235 238 240 245 248 252 259 270 274 278 283 291 293 299 308 309 306 302 301 304 305 304 301 303 304 303 306 309 310 309 306 303 301 300 300 299 297 293 289 285 281 275 273 270 268 263 261
238 238 236 239 238 241 249 255 260 269 275 275 281 287 291 297 303 301 301 301 301 300 301 302 303 306 305 304 306 307 308 308 305 304 301 298 302 302 301 294 290 285 280 276 272 267 266 263 262
238 239 240 238 239 242 251 257 261 271 275 276 281 283 287 291 292 292 294 298 298 298 299 299 301 303 303 302 304 306 310 312 311 307 305 301 302 305 301 297 290 284 281 277 273 269 267 266 264
239 241 241 237 239 243 250 259 265 273 277 282 282 283 286 288 285 286 287 292 294 296 296 297 298 301 302 303 307 309 311 313 313 311 309 307 306 305 299 296 291 284 281 276 273 272 271 270 267
242 243 239 241 244 248 254 261 266 271 277 284 286 286 288 290 290 287 282 285 291 294 293 294 295 299 300 302 305 307 309 312 312 311 311 310 308 305 299 294 287 283 281 278 275 273 271 271 268
243 241 239 239 242 249 256 259 264 267 276 282 280 282 285 290 291 288 283 281 285 289 289 290 294 296 297 299 302 302 304 307 310 311 311 311 309 305 301 295 289 288 287 283 281 279 274 273 270
244 242 243 242 242 247 254 259 261 265 272 276 278 281 283 287 291 288 287 286 288 290 289 291 294 297 297 295 297 297 299 304 308 308 306 308 311 307 301 297 293 293 293 289 285 282 279 276 273
242 243 244 243 239 243 253 258 260 262 264 269 275 280 282 285 286 290 290 288 289 290 293 297 298 300 301 299 295 295 297 300 303 304 305 304 307 304 303 304 301 298 294 292 289 284 283 279 274
241 241 241 238 237 241 247 253 252 258 260 266 272 277 279 283 287 293 293 289 289 290 292 294 297 297 299 300 296 294 293 296 298 299 300 301 301 301 301 300 300 297 295 293 291 287 284 280 277
246 242 240 239 240 242 243 248 250 254 256 261 265 268 275 283 287 287 289 291 290 290 290 290 293 296 297 299 304 296 294 294 295 297 300 302 301 299 296 295 297 297 296 295 292 288 283 279 277
248 244 241 242 240 242 245 250 251 251 255 258 263 268 275 280 277 280 283 285 289 292 289 288 292 297 297 299 302 301 297 297 297 299 301 302 300 299 296 294 295 296 296 294 293 288 284 279 276
246 244 242 241 239 243 249 253 252 249 251 259 264 266 268 272 275 277 275 277 282 286 288 289 293 296 299 300 299 302 300 301 299 298 300 301 301 300 300 296 296 296 297 295 291 287 285 280 275
247 248 248 251 250 249 251 254 252 249 252 258 260 261 262 269 273 276 275 276 276 276 281 287 294 295 297 298 297 296 299 301 301 300 299 299 301 302 300 297 296 297 296 294 291 287 285 282 278
246 247 250 252 255 254 253 253 251 252 257 255 255 257 264 272 275 281 280 274 273 270 273 284 292 295 297 300 298 294 297 298 299 300 300 300 301 302 301 299 297 298 296 295 292 288 285 283 281
246 248 250 251 251 253 252 253 255 256 256 257 260 261 268 269 272 275 277 276 275 271 275 282 289 293 296 299 301 296 296 297 298 299 301 302 302 303 303 301 301 300 298 297 295 292 286 281 279
245 247 248 251 253 254 256 259 258 258 257 258 263 264 267 265 267 269 271 276 275 278 281 284 287 292 294 296 297 297 295 297 300 300 301 303 304 305 305 303 301 300 298 296 292 292 288 283 281
247 247 247 249 250 254 257 257 257 260 260 263 266 263 262 259 263 268 270 273 277 279 279 280 284 290 292 294 294 294 295 298 300 301 301 303 305 306 307 306 305 305 303 299 295 294 291 287 284
Height
5901 5901 5902 5903 5904 5903 5902 5902 5901 5901 5901 5901 5901 5900 5900 5899 5899 5900 5897 5895 5894 5893 5893 5892 5891 5891 5890 5889 5889 5888 5888 5887 5886 5885 5885 5884 5884 5883 5882 5882 5882 5881 5881 5881 5881 5881 5881 5882 5882
5901 5901 5902 5903 5903 5902 5902 5901 5900 5901 5900 5900 5900 5899 5899 5898 5897 5896 5895 5894 5893 5893 5892 5891 5890 5890 5889 5888 5888 5887 5886 5886 5885 5884 5883 5883 5882 5882 5881 5881 5880 5880 5880 5879 5879 5880 5880 5880 5880
5899 5900 5902 5902 5901 5901 5901 5900 5900 5900 5899 5898 5898 5898 5897 5896 5896 5895 5894 5894 5893 5892 5891 5890 5889 5889 5888 5887 5887 5886 5885 5885 5884 5883 5882 5882 5881 5880 5880 5879 5879 5878 5878 5878 5878 5878 5878 5878 5878
5899 5900 5901 5901 5900 5899 5899 5899 5899 5899 5898 5898 5897 5896 5896 5896 5895 5894 5893 5892 5891 5891 5889 5888 5888 5887 5887 5886 5885 5885 5884 5883 5882 5881 5880 5880 5879 5879 5878 5877 5877 5877 5876 5876 5876 5876 5876 5876 5876
5898 5899 5900 5899 5898 5898 5898 5898 5897 5898 5898 5897 5896 5895 5895 5895 5893 5892 5892 5891 5891 5889 5888 5887 5886 5886 5885 5884 5884 5883 5882 5882 5881 5880 5879 5878 5878 5877 5876 5876 5875 5875 5874 5874 5874 5874 5873 5873 5873
5897 5898 5898 5897 5896 5897 5897 5897 5896 5897 5896 5896 5896 5894 5894 5893 5892 5891 5891 5890 5889 5888 5887 5886 5884 5884 5884 5883 5882 5881 5881 5880 5879 5878 5877 5876 5876 5875 5874 5873 5873 5872 5872 5871 5871 5871 5871 5870 5871
5896 5896 5896 5896 5896 5896 5897 5896 5896 5895 5894 5895 5894 5893 5892 5892 5891 5890 5889 5888 5888 5887 5886 5885 5884 5883 5882 5881 5881 5880 5879 5878 5877 5876 5875 5874 5873 5872 5872 5871 5870 5870 5869 5869 5869 5869 5869 5869 5869
5893 5895 5894 5895 5895 5896 5895 5895 5895 5894 5893 5893 5893 5892 5892 5891 5890 5889 5888 5887 5886 5885 5884 5883 5883 5882 5881 5880 5879 5878 5877 5876 5875 5874 5873 5872 5871 5870 5869 5869 5868 5867 5867 5866 5866 5866 5866 5866 5866
5890 5893 5893 5893 5894 5894 5893 5893 5893 5893 5892 5892 5891 5891 5891 5890 5889 5888 5887 5886 5885 5884 5883 5882 5881 5880 5879 5878 5877 5876 5875 5874 5873 5871 5870 5869 5869 5868 5867 5866 5865 5864 5863 5863 5863 5864 5864 5864 5864
5888 5889 5891 5891 5892 5892 5891 5891 5891 5891 5890 5889 5889 5889 5888 5888 5887 5886 5885 5884 5883 5882 5881 5880 5880 5879 5877 5876 5875 5874 5873 5871 5870 5869 5868 5867 5866 5865 5864 5863 5862 5861 5860 5860 5860 5860 5861 5861 5861
5885 5886 5887 5888 5889 5889 5888 5888 5888 5888 5888 5888 5887 5887 5887 5885 5884 5883 5883 5882 5881 5880 5880 5878 5878 5877 5876 5874 5873 5872 5870 5869 5868 5867 5865 5864 5863 5862 5861 5860 5859 5858 5857 5857 5857 5857 5857 5858 5858
5882 5883 5884 5886 5886 5886 5886 5886 5886 5886 5886 5886 5885 5885 5884 5883 5882 5881 5881 5880 5879 5878 5877 5876 5875 5874 5873 5872 5871 5869 5867 5866 5865 5863 5862 5860 5859 5858 5857 5856 5855 5855 5854 5853 5853 5853 5854 5854 5855
5879 5880 5881 5882 5883 5883 5883 5883 5883 5884 5884 5884 5883 5882 5882 5881 5880 5879 5878 5877 5876 5876 5875 5874 5873 5872 5870 5869 5867 5866 5864 5863 5861 5860 5858 5857 5856 5855 5854 5853 5852 5851 5851 5850 5850 5850 5850 5851 5851
5875 5876 5877 5879 5880 5880 5880 5880 5881 5881 5881 5881 5881 5880 5879 5879 5878 5877 5876 5875 5874 5873 5872 5872 5870 5869 5867 5866 5864 5863 5861 5860 5858 5857 5855 5854 5852 5851 5850 5849 5848 5848 5847 5847 5847 5847 5847 5847 5847
5871 5873 5875 5876 5877 5877 5877 5877 5877 5878 5878 5878 5878 5877 5876 5875 5875 5874 5873 5872 5871 5870 5869 5869 5867 5866 5864 5862 5861 5859 5858 5856 5855 5853 5852 5850 5849 5848 5846 5845 5845 5844 5843 5843 5843 5843 5843 5843 5843
5867 5869 5871 5873 5873 5874 5875 5874 5874 5874 5874 5874 5874 5873 5873 5873 5872 5871 5870 5869 5868 5867 5866 5865 5864 5863 5861 5860 5858 5857 5855 5853 5852 5850 5848 5847 5845 5844 5843 5842 5841 5840 5840 5839 5839 5839 5839 5839 5839
5863 5864 5866 5868 5869 5870 5870 5870 5871 5871 5871 5870 5870 5870 5870 5869 5868 5867 5866 5866 5865 5864 5863 5862 5861 5860 5858 5857 5855 5854 5852 5850 5848 5847 5845 5843 5842 5841 5839 5838 5837 5836 5836 5835 5835 5835 5835 5835 5835
5859 5859 5861 5863 5865 5865 5865 5866 5866 5866 5866 5867 5867 5867 5867 5866 5864 5863 5863 5862 5862 5861 5860 5859 5857 5856 5855 5853 5852 5851 5849 5847 5845 5843 5841 5840 5838 5837 5836 5834 5833 5832 5832 5831 5831 5831 5830 5830 5830
5853 5854 5855 5859 5860 5860 5860 5861 5862 5862 5862 5862 5863 5863 5863 5862 5861 5859 5858 5858 5857 5857 5856 5855 5853 5852 5851 5849 5848 5847 5846 5844 5842 5840 5838 5836 5835 5833 5832 5831 5830 5829 5828 5827 5827 5826 5826 5825 5825
5849 5850 5852 5854 5855 5856 5856 5856 5858 5858 5859 5859 5859 5859 5859 5858 5857 5854 5854 5854 5853 5852 5852 5852 5850 5848 5847 5845 5845 5844 5842 5841 5839 5837 5834 5833 5832 5830 5829 5828 5826 5825 5824 5823 5822 5821 5821 5820 5820
5844 5846 5848 5850 5850 5851 5852 5852 5854 5855 5855 5855 5855 5856 5856 5855 5853 5852 5851 5850 5850 5849 5848 5848 5846 5845 5843 5842 5841 5840 5839 5837 5835 5833 5831 5830 5828 5827 5826 5824 5823 5821 5820 5819 5818 5817 5816 5815 5815
5840 5842 5843 5844 5845 5846 5848 5847 5850 5850 5850 5850 5851 5851 5851 5851 5850 5849 5848 5847 5846 5846 5845 5844 5843 5842 5840 5839 5837 5836 5835 5833 5832 5830 5828 5826 5825 5823 5822 5821 5819 5818 5816 5814 5813 5812 5811 5810 5810
5836 5837 5838 5839 5839 5841 5842 5843 5845 5845 5846 5846 5846 5846 5847 5847 5847 5846 5845 5844 5843 5842 5841 5841 5840 5838 5837 5836 5834 5833 5831 5830 5828 5826 5824 5823 5821 5819 5818 5816 5815 5813 5812 5810 5808 5806 5805 5805 5804
5831 5833 5833 5833 5834 5836 5838 5838 5839 5840 5841 5842 5842 5842 5843 5843 5843 5842 5841 5840 5838 5837 5837 5837 5836 5835 5834 5832 5831 5829 5828 5826 5824 5822 5821 5819 5817 5815 5813 5812 5810 5808 5807 5805 5803 5801 5800 5799 5799
5826 5828 5828 5828 5829 5831 5833 5832 5834 5835 5837 5837 5837 5837 5838 5838 5839 5838 5837 5836 5835 5834 5834 5833 5833 5832 5831 5829 5828 5826 5824 5823 5821 5819 5817 5815 5813 5811 5809 5807 5806 5804 5802 5800 5798 5796 5795 5794 5793
5822 5823 5824 5824 5825 5826 5827 5826 5829 5830 5831 5832 5832 5833 5833 5834 5834 5834 5833 5832 5832 5831 5831 5830 5829 5829 5827 5826 5824 5823 5821 5819 5817 5815 5813 5811 5809 5807 5805 5803 5801 5799 5797 5795 5793 5791 5790 5789 5788
5817 5818 5819 5820 5820 5820 5821 5822 5824 5825 5826 5826 5827 5828 5829 5829 5830 5830 5829 5828 5828 5828 5827 5827 5826 5825 5824 5822 5821 5819 5817 5815 5813 5811 5809 5807 5805 5803 5800 5798 5796 5793 5791 5789 5787 5786 5784 5783 5783
5813 5814 5814 5814 5815 5815 5816 5817 5819 5820 5820 5821 5822 5823 5825 5825 5825 5825 5825 5825 5825 5824 5824 5823 5822 5821 5819 5818 5816 5815 5813 5812 5810 5807 5805 5803 5801 5798 5796 5793 5791 5788 5786 5784 5782 5780 5778 5778 5777
5808 5808 5808 5809 5810 5811 5811 5814 5814 5814 5815 5816 5817 5818 5819 5820 5820 5820 5820 5820 5820 5819 5819 5819 5818 5817 5815 5814 5812 5811 5809 5808 5806 5804 5801 5799 5796 5794 5791 5789 5786 5783 5781 5778 5776 5774 5772 5771 5770
5803 5803 5804 5805 5806 5807 5807 5811 5809 5809 5809 5810 5812 5813 5814 5815 5815 5816 5816 5815 5815 5814 5814 5813 5813 5812 5811 5810 5808 5807 5805 5803 5801 5799 5797 5795 5792 5789 5787 5784 5781 5779 5776 5773 5770 5768 5766 5765 5764